This is the latest recevied weather packets stored in our database for station/object WC4PEM-14. If no packets are shown the sender has not sent any weather packets the latest 1 day(s).
| Time | Temp. | Humidity | Pressure | Rain* | Wind** | Luminosity | Snow |
|---|---|---|---|---|---|---|---|
| 1778014385 | 30.56° C | 47% | 1013.7 hPa | 0 mm | 1.79 m/s, 119° | - | - |
| 1778014302 | 30° C | 47% | 1013.8 hPa | 0 mm | 2.24 m/s, 98° | - | - |
| 1778014085 | 30° C | 47% | 1013.8 hPa | 0 mm | 2.24 m/s, 98° | - | - |
| 1778013947 | 30.56° C | 46% | 1013.8 hPa | 0 mm | 2.68 m/s, 111° | - | - |
| 1778013785 | 30.56° C | 46% | 1013.8 hPa | 0 mm | 2.68 m/s, 111° | - | - |
| 1778013485 | 30.56° C | 48% | 1013.8 hPa | 0 mm | 2.68 m/s, 334° | - | - |
| 1778013319 | 31.11° C | 47% | 1013.8 hPa | 0 mm | 3.13 m/s, 101° | - | - |
| 1778013185 | 31.11° C | 47% | 1013.8 hPa | 0 mm | 3.13 m/s, 101° | - | - |
| 1778012977 | 31.67° C | 45% | 1013.8 hPa | 0 mm | 2.68 m/s, 96° | - | - |
| 1778012885 | 31.67° C | 45% | 1013.8 hPa | 0 mm | 2.68 m/s, 96° | - | - |
| 1778012708 | 31.67° C | 45% | 1013.8 hPa | 0 mm | 2.24 m/s, 98° | - | - |
| 1778012585 | 31.67° C | 45% | 1013.8 hPa | 0 mm | 2.24 m/s, 98° | - | - |
| 1778012285 | 31.67° C | 44% | 1013.8 hPa | 0 mm | 1.79 m/s, 102° | - | - |
| 1778012119 | 31.67° C | 43% | 1013.9 hPa | 0 mm | 2.24 m/s, 13° | - | - |
| 1778011985 | 31.67° C | 43% | 1013.9 hPa | 0 mm | 2.24 m/s, 13° | - | - |
| 1778011806 | 31.67° C | 44% | 1013.9 hPa | 0 mm | 2.68 m/s, 96° | - | - |
| 1778011685 | 31.67° C | 44% | 1013.9 hPa | 0 mm | 2.68 m/s, 96° | - | - |
| 1778011503 | 31.67° C | 44% | 1013.9 hPa | 0 mm | 2.68 m/s, 93° | - | - |
| 1778011385 | 31.67° C | 44% | 1013.9 hPa | 0 mm | 2.68 m/s, 93° | - | - |
| 1778011192 | 32.22° C | 44% | 1014 hPa | 0 mm | 3.13 m/s, 93° | - | - |
| 1778011085 | 32.22° C | 44% | 1014 hPa | 0 mm | 3.13 m/s, 93° | - | - |
| 1778010872 | 32.22° C | 43% | 1014.2 hPa | 0 mm | 2.24 m/s, 67° | - | - |
| 1778010785 | 32.22° C | 43% | 1014.2 hPa | 0 mm | 2.24 m/s, 67° | - | - |
| 1778010485 | 32.78° C | 43% | 1014.1 hPa | 0 mm | 1.34 m/s, 96° | - | - |
| 1778010322 | 32.22° C | 43% | 1014.2 hPa | 0 mm | 1.79 m/s, 119° | - | - |
* Rain latest hour (hover to see other rain measurements)
** Current wind speed in m/s (hover to see current wind gust speed)